Location: Pedholt
(56.0260°N, 10.2097°E)
Time: 00:06:37
(UTC+00:00)

A-11 Canister half - Pass Details

Date: 04 August 2021
Orbit: 1515 x 1685 km, 47.2° (Epoch: 19 September)

Event Time Altitude Azimuth Distance (km) Brightness Sun altitude
Rises 13:41:53 0° 181° (S) 4,749 12.0 43.3°
Reaches altitude 10° 13:46:32 10° 162° (SSE) 3,803 11.4 42.8°
Maximum altitude 13:51:43 16° 129° (SE) 3,389 10.9 42.2°
Drops below altitude 10° 13:56:58 10° 96° (E) 3,885 10.9 41.7°
Sets 14:01:47 0° 77° (ENE) 4,904 11.2 41.1°
